Location: Lugrin
(46.4033°N, 6.6674°E)
Time: 17:00:02
(UTC+00:00)

CENTAUR R/B - Pass Details

Date: 18 September 2020
Orbit: 753 x 1435 km, 63.5° (Epoch: 26 October)

Event Time Altitude Azimuth Distance (km) Brightness Sun altitude
Rises 21:14:31 0° 317° (NW) 4,201 6.9 -34.0°
Reaches altitude 10° 21:17:21 10° 312° (NW) 3,312 6.1 -34.3°
Maximum altitude 21:24:59 44° 244° (WSW) 1,839 3.8 -35.2°
Enters shadow 21:25:43 44° 231° (SW) 1,866 3.8 -35.2°
